Regional Weather Roundup
Issued by NWS

Home | Current Version | Previous Version | Text Only | Print | Product List | Glossary On
Versions: 1 2 3 4 5 6 7 8 9 10 11 12 13 14 15 16 17 18 19 20 21 22 23 24 25 26 27 28 29 30 31 32 33 34 35 36 37 38 39 40 41 42 43 44 45 46 47 48 49 50
000
ASUS42 KKEY 170310
RWRKEY

FLORIDA REGIONAL WEATHER ROUNDUP FOR THE FLORIDA KEYS
NATIONAL WEATHER SERVICE KEY WEST FLORIDA
1100 PM EDT MON OCT 16 2017

...SOUTH FLORIDA AND THE KEYS...

CITY           SKY/WX    TMP DP  RH WIND       PRES   REMARKS
FORT MYERS     CLEAR     79  76  90 E3        29.97R
SW REGIONAL AP PTCLDY    78  74  87 SW3       29.97R
NAPLES         PTCLDY    78  70  76 N3        29.97R
MIAMI          MOCLDY    81  75  82 E7        29.97R
WEST KENDALL   CLEAR     76  74  93 CALM      29.97R
HOMESTEAD      PTCLDY    80  76  90 E5        29.97R
MARATHON       LGT RAIN  82  74  76 E3        29.97R
KEY WEST INTL  PTCLDY    82  75  79 N3        29.98R

...INTERNATIONAL WEATHER...

CITY           SKY/WX    TMP DP  RH WIND       PRES   REMARKS
NASSAU BAHAMAS PTCLDY    82  75  78 NE3       29.97R
CANCUN MEXICO  MOCLDY    79  79 100 NW5       29.96R
COZUMEL MEXICO PTCLDY    79  77  94 CALM      29.94R

ADJACENT COASTAL WATERS...

STATION/POSITION TIME  SKY/WX   TEMP    WIND        PRES    WAVE
                                AIR SEA DIR/SP/G            HT/PER
                 (UTC)          (F)     (DEG/KT/KT) (MB)    (FT/S)
PULASKI SHOAL LI 0300            82      10/  4/  5 1015.0R
SAND KEY         0250            82                 1015.6R
LONG KEY         NOT AVBL
MOLASSES REEF    0300            82 84   50/  5/  7 1015.2R
FOWEY ROCKS      0300            82 83   80/  7/  9 1015.7R
Buoy 42097       0230               84                N/A     1

$$



USA.gov is the U.S. government's official web portal to all federal, state and local government web resources and services.